Terug naar catalogus

SECOR 13

EGRS 13

ActiefMilitairSSO
NORAD 3891·PAYLOAD·🇺🇸 United States

Gelanceerd Apr 14, 1969 vanaf Vandenberg Space Force Base

Loading…

Volgende Passages (komende 24 uur)

TLE

VersSource: Space-Track

Epoch: Sep 14, 2026, 03:25 UTC

1 03891U 69037B   26257.14243282 -.00000027  00000-0  26582-4 0  9991
2 03891  99.6323 124.7114 0040009  33.7957 130.8402 13.42979983813692

Volg SECOR 13 in realtime met AllMySat

Download on the App Store